Regional Weather Roundup
Issued by NWS

Home | Current Version | Previous Version | Graphics & Text | Print | Product List | Glossary On
Versions: 1 2 3 4 5 6 7 8 9 10 11 12 13 14 15 16 17 18 19 20 21 22 23 24 25 26 27 28 29 30 31 32 33 34 35 36 37 38 39 40 41 42 43 44 45 46 47 48 49 50
000
ASUS43 KBIS 301210
RWRND

NORTH DAKOTA REGIONAL WEATHER ROUNDUP
NATIONAL WEATHER SERVICE BISMARCK ND
700 AM CDT MON MAY 30 2016

NOTE: "FAIR" INDICATES FEW OR NO CLOUDS BELOW 12,000 FEET WITH NO
SIGNIFICANT WEATHER AND/OR OBSTRUCTIONS TO VISIBILITY.


NDZ001>003-009>011-017-301300-
NORTHWEST NORTH DAKOTA

CITY           SKY/WX    TMP DP  RH WIND       PRES   REMARKS
WILLISTON      CLOUDY    48  43  82 NE5       29.90S
6HR MIN TEMP:  44; 6HR MAX TEMP:  50;

MINOT          CLEAR     53  48  83 CALM      29.89S
MINOT AFB      CLEAR     50  47  88 CALM      29.89R
$$

NDZ018>021-031>035-040>046-301300-
SOUTHWEST NORTH DAKOTA

CITY           SKY/WX    TMP DP  RH WIND       PRES   REMARKS
BISMARCK       CLEAR     53  52  96 NE3       29.94S
6HR MIN TEMP:  50; 6HR MAX TEMP:  57;

DICKINSON      CLEAR     50  46  86 SE3       29.89F
GARRISON         N/A     53  49  86 NE3       29.91S
6HR MIN TEMP:  46; 6HR MAX TEMP:  58;

HETTINGER ARPT CLEAR     52  48  86 SE3       29.91F
$$

NDZ004>008-012>016-024-026-027-054-301300-
NORTHEAST NORTH DAKOTA

CITY           SKY/WX    TMP DP  RH WIND       PRES   REMARKS
GRAND FORKS    MOSUNNY   59  49  69 CALM      29.91S
GRND FRKS AFB  PTSUNNY   61  52  74 W3        29.92R
DEVILS LAKE    MOSUNNY   56  51  84 S6        29.93R
$$

NDZ022-023-025-028>030-036>039-047>053-301300-
SOUTHEAST NORTH DAKOTA

CITY           SKY/WX    TMP DP  RH WIND       PRES   REMARKS
FARGO          MOSUNNY   59  48  67 SE6       29.94R
6HR MIN TEMP:  54; 6HR MAX TEMP:  62;

JAMESTOWN      SUNNY     56  52  86 S7        29.94R
$$




USA.gov is the U.S. government's official web portal to all federal, state and local government web resources and services.